North Las Vegas, NV

7:55 AM PDT on March 29, 2017 (GMT -0700)
North Las Vegas

Weather History for KVGT - August, 2013

Change the Weather History Date:

Thursday, August 22, 2013

  Actual Average Record
Temperature  
Mean Temperature 91 °F 88 °F  
Max Temperature 100 °F 100 °F 106 °F (2011)
Min Temperature 82 °F 76 °F 52 °F (1954)
Degree Days  
Heating Degree Days 0 0  
Month to date heating degree days 0  
Since 1 July heating degree days 0  
Cooling Degree Days 26 23  
Month to date cooling degree days 549  
Year to date cooling degree days 2445  
Growing Degree Days 41 (Base 50)    
Moisture  
Dew Point 47 °F    
Average Humidity 22    
Maximum Humidity 35    
Minimum Humidity 14    
Precipitation  
Precipitation 0.00 in 0.02 in 0.58 in (2012)
Month to date precipitation 0.33  
Year to date precipitation 3.44  
Sea Level Pressure  
Sea Level Pressure 29.86 in    
Wind  
Wind Speed 5 mph (SSW)    
Max Wind Speed 20 mph    
Max Gust Speed 25 mph    
Visibility 10 miles    
Events      
T = Trace of Precipitation, MM = Missing Value Source: NWS Daily Summary

Daily Weather History Graph

Daily Weather History Graph

Search for Another Location

Airport or City:

Trip Planner

Search our weather history database for the weather conditions in past years. The results will help you decide how hot, cold, wet, or windy it might be!

Date:

Astronomy

Aug. 22, 2013 Rise Set
Actual Time 6:04 AM PDT 7:21 PM PDT
Civil Twilight 5:37 AM PDT 7:48 PM PDT
Nautical Twilight 5:05 AM PDT 8:20 PM PDT
Astronomical Twilight 4:32 AM PDT 8:53 PM PDT
Moon 8:14 PM PDT (8/22) 7:53 AM PDT (8/22)
Length of Visible Light 14h 10m
Length of Day
13h 17m
Waning Gibbous, 96% of the Moon is Illuminated
Aug 22
Waning Gibbous
Aug 28
Last Quarter
Sep 5
New
Sep 12
First Quarter
Sep 19
Full

Hourly Weather History & Observations

Time (PDT) Temp. Dew Point Humidity Pressure Visibility Wind Dir Wind Speed Gust Speed Precip Events Conditions
12:53 AM 89.1 °F 42.1 °F 19% 29.86 in 10.0 mi Calm Calm - N/A   Clear
1:53 AM 88.0 °F 43.0 °F 21% 29.85 in 10.0 mi Calm Calm - N/A   Clear
2:53 AM 86.0 °F 46.0 °F 25% 29.86 in 10.0 mi WNW 4.6 mph - N/A   Clear
3:53 AM 84.9 °F 48.0 °F 28% 29.86 in 10.0 mi Calm Calm - N/A   Clear
4:53 AM 82.0 °F 50.0 °F 33% 29.87 in 10.0 mi NNW 3.5 mph - N/A   Clear
5:53 AM 82.0 °F 50.0 °F 33% 29.88 in 10.0 mi North 3.5 mph - N/A   Clear
6:53 AM 82.0 °F 52.0 °F 35% 29.90 in 10.0 mi North 4.6 mph - N/A   Clear
7:53 AM 88.0 °F 51.1 °F 28% 29.91 in 10.0 mi North 4.6 mph - N/A   Clear
8:53 AM 90.0 °F 48.9 °F 24% 29.91 in 10.0 mi East 8.1 mph - N/A   Clear
9:53 AM 93.0 °F 48.0 °F 21% 29.92 in 10.0 mi ESE 9.2 mph - N/A   Clear
10:53 AM 95.0 °F 46.0 °F 19% 29.91 in 10.0 mi SE 8.1 mph - N/A   Clear
11:53 AM 97.0 °F 46.0 °F 18% 29.90 in 10.0 mi SSE 10.4 mph - N/A   Clear
12:53 PM 99.0 °F 42.1 °F 14% 29.87 in 10.0 mi ESE 6.9 mph 16.1 mph N/A   Clear
1:53 PM 100.0 °F 42.1 °F 14% 29.84 in 10.0 mi Variable 3.5 mph 16.1 mph N/A   Clear
2:53 PM 99.0 °F 45.0 °F 16% 29.82 in 10.0 mi SE 10.4 mph - N/A   Clear
3:53 PM 97.0 °F 50.0 °F 20% 29.81 in 10.0 mi SSW 15.0 mph - N/A   Clear
4:53 PM 96.1 °F 46.0 °F 18% 29.81 in 10.0 mi SSW 9.2 mph - N/A   Clear
5:53 PM 95.0 °F 48.0 °F 20% 29.80 in 10.0 mi SW 12.7 mph - N/A   Clear
6:53 PM 93.9 °F 48.0 °F 21% 29.80 in 10.0 mi SW 15.0 mph - N/A   Clear
7:53 PM 93.0 °F 46.9 °F 20% 29.81 in 10.0 mi SSW 11.5 mph - N/A   Clear
8:53 PM 91.0 °F 48.0 °F 23% 29.83 in 10.0 mi SW 6.9 mph - N/A   Clear
9:53 PM 91.9 °F 48.9 °F 23% 29.83 in 10.0 mi SW 6.9 mph - N/A   Clear
10:53 PM 91.0 °F 48.9 °F 23% 29.84 in 10.0 mi West 19.6 mph 25.3 mph N/A   Clear
11:53 PM 90.0 °F 45.0 °F 21% 29.84 in 10.0 mi Calm Calm - N/A   Clear